Wind_Speed
23 24 23 23 24 23 20 20 20 17 15 13 13 14 13 12 15 18 17 13 13 12 12 12 13 13 10 10 10 8 7 7 7 3 3 4 7 11 14 14 14 13 12
24 26 26 22 20 20 21 20 19 19 18 18 16 15 16 14 14 19 20 17 17 16 14 15 16 14 16 14 9 8 9 8 7 3 3 4 6 12 13 14 13 12 10
19 21 19 18 17 16 14 14 14 16 18 18 19 21 21 18 16 18 21 21 19 18 18 19 19 20 19 14 11 11 10 9 7 6 5 5 6 13 14 13 11 10 9
17 18 19 19 18 16 14 12 11 12 14 14 16 18 20 19 19 18 18 22 24 23 22 22 23 23 23 17 12 10 12 11 8 7 7 8 8 14 15 15 12 11 11
13 13 14 13 15 15 16 14 11 9 7 8 12 13 13 13 17 17 19 21 25 27 28 26 27 27 27 25 17 16 18 15 8 8 8 8 11 16 18 15 12 11 11
8 9 9 10 13 14 10 7 7 8 4 3 3 6 7 8 11 18 24 24 24 29 31 28 28 32 29 28 25 19 20 19 15 11 11 12 13 16 17 17 14 13 9
2 3 5 8 8 11 10 6 4 9 7 4 8 12 16 15 18 20 21 25 28 26 28 30 30 31 31 29 27 22 20 19 17 13 11 14 13 17 17 16 14 13 8
5 5 4 4 7 7 5 5 10 10 5 5 13 15 19 23 24 33 29 30 23 27 26 26 23 25 29 28 26 17 18 23 22 19 13 14 11 14 18 14 14 12 9
4 5 5 6 8 8 6 5 6 3 3 6 9 14 18 24 24 27 27 18 18 21 24 25 24 25 25 29 23 19 19 23 20 18 16 14 14 13 16 13 14 14 10
3 4 6 7 8 9 6 5 6 6 6 5 7 7 11 15 16 18 14 14 14 15 16 15 14 18 18 23 20 16 18 21 21 17 16 15 15 15 14 13 14 13 9
1 1 2 3 5 5 6 4 5 6 7 9 12 12 14 14 16 16 15 16 15 10 11 10 7 12 16 20 18 18 23 24 22 19 15 12 9 11 11 10 10 9 10
3 4 5 4 3 4 6 6 7 9 8 9 10 10 10 11 13 14 14 15 14 7 4 2 5 9 9 15 17 23 21 17 20 16 14 13 12 11 9 9 12 9 9
7 7 7 8 10 10 11 10 9 7 8 10 11 11 12 9 8 11 13 13 9 13 8 6 7 2 7 9 8 10 13 17 20 15 13 11 10 10 11 12 13 13 10
6 5 5 5 7 9 8 8 8 8 7 6 8 12 11 9 8 8 7 6 6 7 11 8 4 6 8 8 10 13 14 16 18 15 13 11 13 12 12 13 12 12 9
5 4 4 5 5 7 8 7 7 7 8 7 5 6 10 8 7 4 2 3 4 5 6 8 9 9 9 6 7 14 11 12 12 13 13 14 12 12 12 11 9 11 3
4 4 4 5 7 5 6 4 6 3 3 7 8 7 4 6 6 4 2 4 4 8 5 6 6 6 6 6 6 10 10 10 13 13 13 13 12 13 14 11 9 7 3
5 3 3 4 3 5 7 7 5 5 4 5 5 6 4 4 3 3 1 1 3 5 6 4 4 4 3 2 5 11 15 16 14 14 16 14 14 16 22 16 13 10 10
5 7 4 3 4 5 4 3 4 4 5 2 3 5 0 3 3 2 4 4 2 1 1 3 5 8 9 8 8 12 15 16 16 18 18 20 25 25 20 14 11 9 12
4 4 4 4 5 8 5 4 5 6 5 5 5 4 3 5 4 2 2 0 2 2 3 5 5 6 6 6 6 8 11 18 22 21 21 25 25 21 13 9 8 9 11
3 5 6 4 6 5 3 3 5 5 4 2 1 5 6 5 4 3 1 2 0 2 3 3 5 5 6 6 7 8 11 16 19 22 23 24 20 15 13 13 12 13 8
3 3 5 4 2 2 3 3 3 4 5 6 5 3 4 5 4 3 3 2 1 1 3 4 4 4 4 5 8 12 12 15 22 21 21 20 18 16 13 14 12 8 9
3 3 3 2 1 2 3 4 5 4 2 4 5 6 4 7 7 7 5 3 2 2 4 4 4 6 6 7 9 10 10 12 13 19 15 14 18 18 18 12 9 8 9
3 3 2 2 2 2 2 3 3 2 3 3 3 5 5 5 7 7 6 5 4 3 4 4 6 7 6 7 10 11 12 12 14 19 16 17 19 18 11 10 9 9 8
4 3 2 3 1 2 2 4 5 6 3 2 3 4 5 6 6 7 6 5 5 4 4 4 6 7 6 7 9 10 10 15 13 17 19 24 15 11 10 9 9 7 8
3 1 1 0 1 1 3 4 3 5 6 6 5 1 2 4 6 7 7 7 6 6 5 4 5 6 8 9 10 11 12 12 14 18 21 11 11 11 10 9 9 9 8
1 3 3 1 1 2 2 3 2 3 5 5 6 5 3 1 5 5 6 6 6 5 4 4 6 7 9 8 10 13 15 16 19 21 12 10 10 12 10 9 10 8 8
Wind_Direction
222 225 225 228 232 236 233 236 240 250 259 262 258 257 257 257 252 244 245 243 244 240 237 239 245 240 227 230 236 233 235 238 252 155 182 183 166 169 180 185 187 189 197
232 232 233 233 230 229 236 241 243 247 249 255 262 264 263 262 258 244 240 242 243 240 238 241 243 240 240 242 247 235 241 226 256 228 175 173 170 174 171 177 190 195 195
227 231 232 232 233 235 236 239 246 254 256 252 255 258 258 260 259 257 252 250 254 246 244 243 242 242 242 238 244 251 236 237 223 216 186 187 163 173 176 180 187 191 199
229 227 229 230 227 223 226 233 237 248 256 259 258 258 261 258 253 254 251 254 254 259 250 247 246 245 247 244 246 244 231 226 217 233 198 187 178 180 179 182 186 198 205
238 234 233 230 223 220 213 212 216 228 236 265 270 265 268 266 265 255 251 251 257 256 258 248 245 244 251 242 250 259 233 221 211 230 231 195 187 176 182 182 187 187 203
254 243 225 210 206 199 185 160 178 181 157 239 282 271 252 264 267 283 277 265 260 260 258 251 251 257 253 244 238 250 250 225 211 216 239 220 199 185 181 180 181 181 190
87 102 137 165 173 165 153 189 287 290 306 299 253 251 253 254 274 277 305 291 264 259 258 257 253 251 254 244 236 235 240 239 233 228 235 236 209 196 181 180 183 181 184
124 130 135 185 223 234 246 218 210 229 267 314 265 261 269 273 275 266 274 298 270 261 257 252 251 245 245 232 224 227 230 229 226 227 229 248 226 200 197 198 190 167 158
200 229 241 246 246 233 224 224 247 269 302 271 276 276 286 285 276 284 259 291 287 268 260 259 259 251 242 222 211 221 228 230 225 226 233 233 218 207 203 183 177 177 172
316 298 283 285 278 278 276 292 303 304 296 266 271 301 279 271 268 268 268 283 270 263 263 269 273 248 226 208 205 222 224 222 210 212 218 220 214 213 211 197 188 189 172
38 278 325 313 289 281 292 304 313 306 307 314 310 299 292 289 292 291 286 272 262 254 263 259 248 241 231 224 234 230 230 227 201 202 195 198 181 175 176 179 179 185 181
21 344 328 324 328 325 321 317 316 312 308 298 292 295 289 289 289 271 274 273 255 259 250 273 278 288 250 238 237 229 228 215 188 189 193 190 178 172 167 166 171 156 161
331 331 336 341 340 340 336 329 322 312 304 306 304 301 301 296 290 288 282 285 271 240 242 271 312 221 171 164 182 193 188 185 187 187 192 189 180 171 173 165 165 163 167
312 336 340 342 336 339 333 319 319 319 311 305 315 320 323 318 314 312 318 304 288 230 230 267 203 184 186 190 207 203 190 195 193 191 186 175 174 171 179 178 174 175 177
302 321 332 334 337 342 346 329 320 303 285 288 296 314 326 340 343 342 79 97 97 130 166 150 142 151 158 159 168 175 183 191 187 188 178 176 171 176 172 178 172 168 174
254 272 309 317 331 352 357 353 342 285 287 281 284 288 324 334 329 332 52 67 97 132 133 144 144 151 158 169 175 187 188 190 195 188 180 170 173 172 176 169 158 148 224
253 278 286 305 347 4 0 9 338 326 9 2 353 333 295 357 352 299 218 133 168 158 129 136 133 147 143 199 227 216 205 198 191 189 178 179 176 159 146 146 183 207 223
264 277 280 304 359 0 351 323 312 310 300 274 328 352 348 307 326 272 236 203 165 107 146 243 264 274 280 264 242 224 214 198 191 189 188 184 164 158 159 180 196 207 207
265 258 282 299 331 339 321 296 281 276 267 289 268 237 276 274 253 194 173 254 62 6 286 259 258 265 274 265 243 221 217 204 195 193 188 181 172 167 173 198 218 213 188
280 283 296 306 315 320 309 262 282 271 249 235 220 258 243 243 246 219 193 59 154 234 253 259 248 251 253 238 214 201 197 199 192 185 179 176 177 191 195 199 187 171 174
317 316 314 313 316 311 306 294 285 273 248 227 220 205 238 247 248 198 181 167 99 192 219 212 220 210 210 208 205 189 186 190 197 196 183 191 200 189 186 168 168 180 200
307 317 330 343 341 312 311 313 296 263 234 219 216 232 245 210 200 198 197 176 162 163 186 193 196 208 228 221 198 180 184 178 180 184 186 189 188 184 174 165 181 195 180
321 319 326 341 341 319 330 2 11 318 267 258 246 217 209 187 187 192 194 193 191 189 187 182 195 199 203 211 203 200 182 179 181 182 182 173 171 162 173 180 173 173 176
315 308 338 353 33 12 7 10 17 33 20 296 237 209 202 203 198 200 194 190 191 187 185 190 198 208 204 184 183 181 187 181 173 182 181 168 166 178 183 183 170 172 171
310 221 321 338 352 336 359 8 11 10 12 16 27 331 226 213 203 199 199 193 189 183 180 184 182 184 172 167 168 169 176 178 178 171 162 171 182 187 178 167 167 169 173
277 258 272 280 323 352 5 5 353 351 359 2 6 13 8 220 196 190 186 184 175 177 174 174 176 172 175 174 169 162 153 162 168 166 171 166 166 164 163 165 168 172 172
Height
808 811 814 817 821 826 829 831 833 837 840 841 842 842 844 846 846 847 849 850 850 850 851 851 852 850 851 852 852 852 853 853 850 849 851 851 853 854 858 863 866 869 870
804 807 809 813 816 820 823 826 828 831 834 836 838 840 841 842 842 842 844 845 846 846 847 847 847 847 847 848 849 850 851 849 850 849 851 852 851 853 857 861 865 868 870
800 804 806 809 813 817 820 822 825 827 829 830 832 833 835 837 838 838 840 842 842 842 842 842 842 841 841 844 844 845 846 848 845 845 846 849 849 851 855 859 862 865 866
797 800 802 805 807 810 814 817 820 822 824 826 826 826 828 830 830 832 834 834 838 838 837 836 836 836 838 840 841 842 843 845 843 845 843 845 846 847 851 855 858 861 863
796 798 799 803 805 807 807 809 813 815 817 819 820 821 822 826 829 827 827 827 829 830 830 828 827 828 830 833 835 836 837 840 842 843 844 843 843 845 845 850 853 858 860
796 797 799 800 802 803 808 811 812 811 808 811 811 814 815 815 819 824 825 823 821 822 823 822 821 822 822 824 827 830 834 834 835 840 843 839 839 840 842 844 848 852 856
797 797 799 800 803 807 805 809 806 816 809 803 804 804 807 805 807 813 816 815 815 815 814 815 813 813 815 816 820 821 827 831 833 834 837 839 839 838 838 842 844 847 851
799 799 799 799 801 803 804 804 806 809 803 798 800 798 798 799 794 803 807 808 807 808 807 806 808 808 806 808 813 818 820 824 828 831 832 837 838 836 837 840 841 844 847
798 799 799 799 799 801 801 801 802 797 794 796 796 794 790 790 791 796 798 801 800 800 801 801 799 801 803 804 806 811 815 820 824 827 829 832 834 834 835 837 839 842 845
798 798 799 799 800 800 800 798 795 793 793 796 796 792 793 794 793 795 790 793 796 795 796 795 794 796 798 801 803 810 815 816 817 821 827 829 830 831 832 835 837 838 841
799 799 800 798 798 798 798 797 795 795 793 791 791 791 791 790 789 787 787 790 793 792 792 790 791 794 797 799 804 806 807 810 813 820 823 828 829 829 831 833 835 838 840
799 799 799 798 798 796 794 793 793 792 791 791 791 790 790 789 789 790 790 789 789 788 789 788 790 792 793 796 799 799 802 806 812 819 823 826 827 830 832 833 835 837 840
799 798 797 796 796 795 795 796 795 794 793 792 792 791 790 789 788 787 787 786 785 786 787 787 789 790 791 793 796 797 801 806 809 816 819 823 826 829 831 833 835 837 840
798 798 798 797 796 795 794 793 792 793 793 793 793 791 789 787 785 783 782 782 782 782 785 787 787 791 792 792 794 798 802 806 807 812 816 821 824 827 831 833 834 837 839
798 798 798 797 796 795 795 795 795 795 795 794 793 792 789 786 786 784 782 782 783 783 785 787 789 792 792 794 796 798 802 804 807 810 815 819 822 825 829 832 835 836 839
799 799 798 797 797 797 797 796 796 795 795 794 792 792 790 788 786 786 785 785 785 784 787 789 790 792 793 795 798 799 801 803 806 810 815 819 821 825 827 833 835 835 838
797 798 798 797 797 798 796 796 797 796 795 794 793 791 791 788 787 788 786 787 787 788 786 789 790 791 794 796 797 798 799 802 805 810 814 817 821 822 825 829 831 835 838
794 795 796 797 797 797 797 796 795 794 793 791 791 791 790 789 789 789 789 788 787 785 785 788 790 792 793 794 795 795 796 800 803 808 811 815 817 820 823 829 831 833 834
793 794 794 795 795 795 794 794 793 792 792 792 791 791 792 792 791 789 789 788 784 784 786 788 790 791 792 792 793 793 795 798 801 805 810 813 816 819 822 826 829 831 833
791 792 793 794 794 793 793 792 791 791 790 790 791 790 790 790 789 790 789 787 787 787 788 789 789 790 790 791 791 793 795 797 801 805 808 812 816 817 822 825 827 829 831
791 792 791 792 792 792 791 791 790 790 790 789 789 788 788 788 788 789 789 788 787 787 787 787 788 788 789 790 790 792 794 796 799 803 807 811 814 818 821 823 825 827 831
790 791 791 791 791 790 790 790 789 789 788 788 788 788 787 786 788 788 788 787 786 785 785 786 787 787 788 788 789 791 793 795 799 803 807 811 813 815 819 821 824 827 829
790 790 790 790 789 789 789 788 788 787 787 787 786 786 785 786 787 787 787 787 786 785 784 785 785 785 786 787 789 790 791 794 798 802 805 809 813 816 819 821 824 826 828
789 789 789 789 789 788 788 787 786 785 785 784 784 784 784 785 785 785 785 785 785 785 785 785 785 785 786 786 788 791 793 794 797 800 805 809 814 816 819 822 823 826 828
788 788 788 788 788 788 787 786 786 785 784 783 783 783 782 782 782 782 783 784 784 784 784 784 784 784 786 787 788 790 791 795 797 802 807 811 814 817 819 821 823 826 828
787 787 787 787 787 787 786 786 785 785 784 783 782 781 780 780 780 780 781 781 782 783 783 784 784 785 786 787 788 790 792 795 799 804 808 811 813 816 819 821 824 826 828